Portada
METAR-TAF:

METAR-TAF

Aeroports :

Plataforma petroliera

Ula, Noruega

latitud: 59-06-39N, longitud: 2-50-45E, altitud: 0 m

Observació

L'informe es va fer fa 28 minuts, a les 16:20 UTC
Vent 4 kt del Sud, variant entre Est/Sud-Est i Sud-Oest
Temperatura 7°C
Humitat 87%
Pressió 1000 hPa
Visibilitat 10 km o més
xàfecs de pluja

METAR: ENLA 071620Z AUTO 18004KT 120V220 9999NDV -SHRA FEW046/// BKN069/// BKN110/// 07/05 Q1000 W///S4

Hora: 17:48 (16:48 UTC)


TAF: manca

Observacions i pronòstics meteorològics de més de 4000 aeroports (METAR i TAF).

Les estacions disponibles són els punts grocs i vermells al mapa.

Posi el ratolí al punt desitjat per veure el nom de l'estació.

Feu clic per veure les observacions i els pronòstics meteorològics.

Per canviar el mapa: feu clic els botons verds amb una creu de color negre per apropar; al botó verd amb un guió per allunyar la imatge; o en les fletxes verdes per a mapes adjacents.


METAR-TAF: